Year,Month,Day,Hour,Minute,Value (Times are PST for temperature in C)
2007,08,14,00,00,13.70
2007,08,14,00,01,13.70
2007,08,14,00,02,13.70
2007,08,14,00,03,13.70
2007,08,14,00,04,13.60
2007,08,14,00,05,13.60
2007,08,14,00,06,13.60
2007,08,14,00,07,13.60
2007,08,14,00,08,13.50
2007,08,14,00,09,13.50
2007,08,14,00,10,13.50
2007,08,14,00,11,13.50
2007,08,14,00,12,13.50
2007,08,14,00,13,13.50
2007,08,14,00,14,13.50
2007,08,14,00,15,13.50
2007,08,14,00,16,13.50
2007,08,14,00,17,13.50
2007,08,14,00,18,13.50
2007,08,14,00,19,13.50
2007,08,14,00,20,13.50
2007,08,14,00,21,13.50
2007,08,14,00,22,13.50
2007,08,14,00,23,13.50
2007,08,14,00,24,13.50
2007,08,14,00,25,13.50
2007,08,14,00,26,13.50
2007,08,14,00,27,13.50
2007,08,14,00,28,13.50
2007,08,14,00,29,13.50
2007,08,14,00,30,13.40
2007,08,14,00,31,13.40
2007,08,14,00,32,13.40
2007,08,14,00,33,13.40
2007,08,14,00,34,13.30
2007,08,14,00,35,13.30
2007,08,14,00,36,13.30
2007,08,14,00,37,13.30
2007,08,14,00,38,13.30
2007,08,14,00,39,13.30
2007,08,14,00,40,13.30
2007,08,14,00,41,13.30
2007,08,14,00,42,13.30
2007,08,14,00,43,13.20
2007,08,14,00,44,13.20
2007,08,14,00,45,13.20
2007,08,14,00,46,13.20
2007,08,14,00,47,13.10
2007,08,14,00,48,13.10
2007,08,14,00,49,13.10
2007,08,14,00,50,13.10
2007,08,14,00,51,13.10
2007,08,14,00,52,13.10
2007,08,14,00,53,13.10
2007,08,14,00,54,13.10
2007,08,14,00,55,13.10
2007,08,14,00,56,13.00
2007,08,14,00,57,13.00
2007,08,14,00,58,13.00
2007,08,14,00,59,13.00
2007,08,14,01,00,13.00
2007,08,14,01,01,12.90
2007,08,14,01,02,12.90
2007,08,14,01,03,12.90
2007,08,14,01,04,12.90
2007,08,14,01,05,12.90
2007,08,14,01,06,12.90
2007,08,14,01,07,12.90
2007,08,14,01,08,12.90
2007,08,14,01,09,12.90
2007,08,14,01,10,12.80
2007,08,14,01,11,12.80
2007,08,14,01,12,12.80
2007,08,14,01,13,12.80
2007,08,14,01,14,12.80
2007,08,14,01,15,12.80
2007,08,14,01,16,12.80
2007,08,14,01,17,12.80
2007,08,14,01,18,12.80
2007,08,14,01,19,12.80
2007,08,14,01,20,12.80
2007,08,14,01,21,12.80
2007,08,14,01,22,12.80
2007,08,14,01,23,12.80
2007,08,14,01,24,12.70
2007,08,14,01,25,12.70
2007,08,14,01,26,12.70
2007,08,14,01,27,12.70
2007,08,14,01,28,12.60
2007,08,14,01,29,12.60
2007,08,14,01,30,12.60
2007,08,14,01,31,12.60
2007,08,14,01,32,12.60
2007,08,14,01,33,12.60
2007,08,14,01,34,12.60
2007,08,14,01,35,12.60
2007,08,14,01,36,12.60
2007,08,14,01,37,12.60
2007,08,14,01,38,12.60
2007,08,14,01,39,12.60
2007,08,14,01,40,12.60
2007,08,14,01,41,12.50
2007,08,14,01,42,12.50
2007,08,14,01,43,12.50
2007,08,14,01,44,12.50
2007,08,14,01,45,12.60
2007,08,14,01,46,12.60
2007,08,14,01,47,12.60
2007,08,14,01,48,12.60
2007,08,14,01,49,12.60
2007,08,14,01,50,12.60
2007,08,14,01,51,12.60
2007,08,14,01,52,12.60
2007,08,14,01,53,12.50
2007,08,14,01,54,12.50
2007,08,14,01,55,12.50
2007,08,14,01,56,12.50
2007,08,14,01,57,12.40
2007,08,14,01,58,12.50
2007,08,14,01,59,12.50
2007,08,14,02,00,12.50
2007,08,14,02,01,12.50
2007,08,14,02,02,12.50
2007,08,14,02,03,12.50
2007,08,14,02,04,12.50
2007,08,14,02,05,12.50
2007,08,14,02,06,12.50
2007,08,14,02,07,12.50
2007,08,14,02,08,12.40
2007,08,14,02,09,12.40
2007,08,14,02,10,12.40
2007,08,14,02,11,12.40
2007,08,14,02,12,12.40
2007,08,14,02,13,12.40
2007,08,14,02,14,12.40
2007,08,14,02,15,12.40
2007,08,14,02,16,12.40
2007,08,14,02,17,12.40
2007,08,14,02,18,12.40
2007,08,14,02,19,12.40
2007,08,14,02,20,12.40
2007,08,14,02,21,12.40
2007,08,14,02,22,12.40
2007,08,14,02,23,12.50
2007,08,14,02,24,12.50
2007,08,14,02,25,12.40
2007,08,14,02,26,12.40
2007,08,14,02,27,12.40
2007,08,14,02,28,12.40
2007,08,14,02,29,12.40
2007,08,14,02,30,12.40
2007,08,14,02,31,12.30
2007,08,14,02,32,12.30
2007,08,14,02,33,12.30
2007,08,14,02,34,12.30
2007,08,14,02,35,12.30
2007,08,14,02,36,12.30
2007,08,14,02,37,12.30
2007,08,14,02,38,12.30
2007,08,14,02,39,12.30
2007,08,14,02,40,12.30
2007,08,14,02,41,12.30
2007,08,14,02,42,12.30
2007,08,14,02,43,12.30
2007,08,14,02,44,12.30
2007,08,14,02,45,12.30
2007,08,14,02,46,12.30
2007,08,14,02,47,12.30
2007,08,14,02,48,12.20
2007,08,14,02,49,12.20
2007,08,14,02,50,12.20
2007,08,14,02,51,12.10
2007,08,14,02,52,12.00
2007,08,14,02,53,12.00
2007,08,14,02,54,11.90
2007,08,14,02,55,11.90
2007,08,14,02,56,11.90
2007,08,14,02,57,11.90
2007,08,14,02,58,11.90
2007,08,14,02,59,11.80
2007,08,14,03,00,11.80
2007,08,14,03,01,11.80
2007,08,14,03,02,11.80
2007,08,14,03,03,11.80
2007,08,14,03,04,11.70
2007,08,14,03,05,11.70
2007,08,14,03,06,11.60
2007,08,14,03,07,11.60
2007,08,14,03,08,11.60
2007,08,14,03,09,11.60
2007,08,14,03,10,11.60
2007,08,14,03,11,11.50
2007,08,14,03,12,11.50
2007,08,14,03,13,11.50
2007,08,14,03,14,11.50
2007,08,14,03,15,11.50
2007,08,14,03,16,11.40
2007,08,14,03,17,11.40
2007,08,14,03,18,11.40
2007,08,14,03,19,11.40
2007,08,14,03,20,11.40
2007,08,14,03,21,11.40
2007,08,14,03,22,11.40
2007,08,14,03,23,11.40
2007,08,14,03,24,11.30
2007,08,14,03,25,11.30
2007,08,14,03,26,11.30
2007,08,14,03,27,11.30
2007,08,14,03,28,11.30
2007,08,14,03,29,11.30
2007,08,14,03,30,11.30
2007,08,14,03,31,11.40
2007,08,14,03,32,11.30
2007,08,14,03,33,11.30
2007,08,14,03,34,11.30
2007,08,14,03,35,11.40
2007,08,14,03,36,11.40
2007,08,14,03,37,11.30
2007,08,14,03,38,11.30
2007,08,14,03,39,11.30
2007,08,14,03,40,11.30
2007,08,14,03,41,11.30
2007,08,14,03,42,11.30
2007,08,14,03,43,11.30
2007,08,14,03,44,11.30
2007,08,14,03,45,11.30
2007,08,14,03,46,11.30
2007,08,14,03,47,11.30
2007,08,14,03,48,11.30
2007,08,14,03,49,11.30
2007,08,14,03,50,11.30
2007,08,14,03,51,11.20
2007,08,14,03,52,11.20
2007,08,14,03,53,11.20
2007,08,14,03,54,11.10
2007,08,14,03,55,11.10
2007,08,14,03,56,11.10
2007,08,14,03,57,11.10
2007,08,14,03,58,11.10
2007,08,14,03,59,11.10
2007,08,14,04,00,11.10
2007,08,14,04,01,11.00
2007,08,14,04,02,11.00
2007,08,14,04,03,11.00
2007,08,14,04,04,11.00
2007,08,14,04,05,11.00
2007,08,14,04,06,11.00
2007,08,14,04,07,11.00
2007,08,14,04,08,11.00
2007,08,14,04,09,11.00
2007,08,14,04,10,11.00
2007,08,14,04,11,10.90
2007,08,14,04,12,10.90
2007,08,14,04,13,10.90
2007,08,14,04,14,11.00
2007,08,14,04,15,11.00
2007,08,14,04,16,11.00
2007,08,14,04,17,11.00
2007,08,14,04,18,11.00
2007,08,14,04,19,11.00
2007,08,14,04,20,11.00
2007,08,14,04,21,11.00
2007,08,14,04,22,11.00
2007,08,14,04,23,11.00
2007,08,14,04,24,11.00
2007,08,14,04,25,10.90
2007,08,14,04,26,10.90
2007,08,14,04,27,10.90
2007,08,14,04,28,10.90
2007,08,14,04,29,10.90
2007,08,14,04,30,10.90
2007,08,14,04,31,10.90
2007,08,14,04,32,10.90
2007,08,14,04,33,10.90
2007,08,14,04,34,11.00
2007,08,14,04,35,11.00
2007,08,14,04,36,11.00
2007,08,14,04,37,11.00
2007,08,14,04,38,11.00
2007,08,14,04,39,11.00
2007,08,14,04,40,11.00
2007,08,14,04,41,11.00
2007,08,14,04,42,11.00
2007,08,14,04,43,11.00
2007,08,14,04,44,11.00
2007,08,14,04,45,11.00
2007,08,14,04,46,11.00
2007,08,14,04,47,11.00
2007,08,14,04,48,11.00
2007,08,14,04,49,11.00
2007,08,14,04,50,11.00
2007,08,14,04,51,11.00
2007,08,14,04,52,11.00
2007,08,14,04,53,11.00
2007,08,14,04,54,11.00
2007,08,14,04,55,11.00
2007,08,14,04,56,11.00
2007,08,14,04,57,11.00
2007,08,14,04,58,11.00
2007,08,14,04,59,11.00
2007,08,14,05,00,11.00
2007,08,14,05,01,10.90
2007,08,14,05,02,10.90
2007,08,14,05,03,10.90
2007,08,14,05,04,10.90
2007,08,14,05,05,10.90
2007,08,14,05,06,10.90
2007,08,14,05,07,10.90
2007,08,14,05,08,10.80
2007,08,14,05,09,10.80
2007,08,14,05,10,10.80
2007,08,14,05,11,10.80
2007,08,14,05,12,10.80
2007,08,14,05,13,10.80
2007,08,14,05,14,10.80
2007,08,14,05,15,10.80
2007,08,14,05,16,10.80
2007,08,14,05,17,10.80
2007,08,14,05,18,10.80
2007,08,14,05,19,10.80
2007,08,14,05,20,10.80
2007,08,14,05,21,10.70
2007,08,14,05,22,10.70
2007,08,14,05,23,10.70
2007,08,14,05,24,10.70
2007,08,14,05,25,10.70
2007,08,14,05,26,10.70
2007,08,14,05,27,10.70
2007,08,14,05,28,10.70
2007,08,14,05,29,10.70
2007,08,14,05,30,10.70
2007,08,14,05,31,10.70
2007,08,14,05,32,10.70
2007,08,14,05,33,10.70
2007,08,14,05,34,10.70
2007,08,14,05,35,10.70
2007,08,14,05,36,10.70
2007,08,14,05,37,10.70
2007,08,14,05,38,10.70
2007,08,14,05,39,10.70
2007,08,14,05,40,10.70
2007,08,14,05,41,10.70
2007,08,14,05,42,10.70
2007,08,14,05,43,10.70
2007,08,14,05,44,10.70
2007,08,14,05,45,10.70
2007,08,14,05,46,10.60
2007,08,14,05,47,10.60
2007,08,14,05,48,10.60
2007,08,14,05,49,10.50
2007,08,14,05,50,10.50
2007,08,14,05,51,10.50
2007,08,14,05,52,10.40
2007,08,14,05,53,10.40
2007,08,14,05,54,10.40
2007,08,14,05,55,10.40
2007,08,14,05,56,10.40
2007,08,14,05,57,10.40
2007,08,14,05,58,10.40
2007,08,14,05,59,10.40
2007,08,14,06,00,10.40
2007,08,14,06,01,10.40
2007,08,14,06,02,10.40
2007,08,14,06,03,10.50
2007,08,14,06,04,10.50
2007,08,14,06,05,10.50
2007,08,14,06,06,10.50
2007,08,14,06,07,10.50
2007,08,14,06,08,10.50
2007,08,14,06,09,10.50
2007,08,14,06,10,10.40
2007,08,14,06,11,10.40
2007,08,14,06,12,10.40
2007,08,14,06,13,10.40
2007,08,14,06,14,10.40
2007,08,14,06,15,10.40
2007,08,14,06,16,10.30
2007,08,14,06,17,10.30
2007,08,14,06,18,10.30
2007,08,14,06,19,10.30
2007,08,14,06,20,10.30
2007,08,14,06,21,10.30
2007,08,14,06,22,10.30
2007,08,14,06,23,10.30
2007,08,14,06,24,10.30
2007,08,14,06,25,10.20
2007,08,14,06,26,10.20
2007,08,14,06,27,10.20
2007,08,14,06,28,10.20
2007,08,14,06,29,10.30
2007,08,14,06,30,10.30
2007,08,14,06,31,10.30
2007,08,14,06,32,10.40
2007,08,14,06,33,10.40
2007,08,14,06,34,10.50
2007,08,14,06,35,10.60
2007,08,14,06,36,10.60
2007,08,14,06,37,10.70
2007,08,14,06,38,10.80
2007,08,14,06,39,10.80
2007,08,14,06,40,10.80
2007,08,14,06,41,10.90
2007,08,14,06,42,11.00
2007,08,14,06,43,11.10
2007,08,14,06,44,11.10
2007,08,14,06,45,11.20
2007,08,14,06,46,11.20
2007,08,14,06,47,11.30
2007,08,14,06,48,11.30
2007,08,14,06,49,11.30
2007,08,14,06,50,11.40
2007,08,14,06,51,11.40
2007,08,14,06,52,11.40
2007,08,14,06,53,11.50
2007,08,14,06,54,11.50
2007,08,14,06,55,11.50
2007,08,14,06,56,11.50
2007,08,14,06,57,11.50
2007,08,14,06,58,11.40
2007,08,14,06,59,11.40
2007,08,14,07,00,11.40
2007,08,14,07,01,11.40
2007,08,14,07,02,11.40
2007,08,14,07,03,11.50
2007,08,14,07,04,11.50
2007,08,14,07,05,11.60
2007,08,14,07,06,11.60
2007,08,14,07,07,11.70
2007,08,14,07,08,11.70
2007,08,14,07,09,11.80
2007,08,14,07,10,11.80
2007,08,14,07,11,11.90
2007,08,14,07,12,11.90
2007,08,14,07,13,12.00
2007,08,14,07,14,12.10
2007,08,14,07,15,12.20
2007,08,14,07,16,12.30
2007,08,14,07,17,12.40
2007,08,14,07,18,12.40
2007,08,14,07,19,12.50
2007,08,14,07,20,12.60
2007,08,14,07,21,12.70
2007,08,14,07,22,12.70
2007,08,14,07,23,12.80
2007,08,14,07,24,12.90
2007,08,14,07,25,13.00
2007,08,14,07,26,13.00
2007,08,14,07,27,13.10
2007,08,14,07,28,13.10
2007,08,14,07,29,13.10
2007,08,14,07,30,13.20
2007,08,14,07,31,13.30
2007,08,14,07,32,13.30
2007,08,14,07,33,13.40
2007,08,14,07,34,13.50
2007,08,14,07,35,13.60
2007,08,14,07,36,13.60
2007,08,14,07,37,13.70
2007,08,14,07,38,13.70
2007,08,14,07,39,13.70
2007,08,14,07,40,13.80
2007,08,14,07,41,13.80
2007,08,14,07,42,13.80
2007,08,14,07,43,13.90
2007,08,14,07,44,13.90
2007,08,14,07,45,14.00
2007,08,14,07,46,14.00
2007,08,14,07,47,14.10
2007,08,14,07,48,14.20
2007,08,14,07,49,14.20
2007,08,14,07,50,14.30
2007,08,14,07,51,14.30
2007,08,14,07,52,14.40
2007,08,14,07,53,14.50
2007,08,14,07,54,14.50
2007,08,14,07,55,14.60
2007,08,14,07,56,14.70
2007,08,14,07,57,14.80
2007,08,14,07,58,15.00
2007,08,14,07,59,15.00
2007,08,14,08,00,15.00
2007,08,14,08,01,15.10
2007,08,14,08,02,15.30
2007,08,14,08,03,15.50
2007,08,14,08,04,15.70
2007,08,14,08,05,15.90
2007,08,14,08,06,16.00
2007,08,14,08,07,16.10
2007,08,14,08,08,16.20
2007,08,14,08,09,16.30
2007,08,14,08,10,16.30
2007,08,14,08,11,16.30
2007,08,14,08,12,16.40
2007,08,14,08,13,16.50
2007,08,14,08,14,16.60
2007,08,14,08,15,16.70
2007,08,14,08,16,16.80
2007,08,14,08,17,16.90
2007,08,14,08,18,17.00
2007,08,14,08,19,17.10
2007,08,14,08,20,17.20
2007,08,14,08,21,17.30
2007,08,14,08,22,17.40
2007,08,14,08,23,17.40
2007,08,14,08,24,17.50
2007,08,14,08,25,17.50
2007,08,14,08,26,17.60
2007,08,14,08,27,17.70
2007,08,14,08,28,17.80
2007,08,14,08,29,17.90
2007,08,14,08,30,18.00
2007,08,14,08,31,18.00
2007,08,14,08,32,18.10
2007,08,14,08,33,18.10
2007,08,14,08,34,18.10
2007,08,14,08,35,18.20
2007,08,14,08,36,18.20
2007,08,14,08,37,18.30
2007,08,14,08,38,18.30
2007,08,14,08,39,18.30
2007,08,14,08,40,18.30
2007,08,14,08,41,18.20
2007,08,14,08,42,18.20
2007,08,14,08,43,18.20
2007,08,14,08,44,18.20
2007,08,14,08,45,18.20
2007,08,14,08,46,18.20
2007,08,14,08,47,18.20
2007,08,14,08,48,18.20
2007,08,14,08,49,18.30
2007,08,14,08,50,18.30
2007,08,14,08,51,18.30
2007,08,14,08,52,18.40
2007,08,14,08,53,18.40
2007,08,14,08,54,18.40
2007,08,14,08,55,18.50
2007,08,14,08,56,18.50
2007,08,14,08,57,18.50
2007,08,14,08,58,18.50
2007,08,14,08,59,18.60
2007,08,14,09,00,18.60
2007,08,14,09,01,18.70
2007,08,14,09,02,18.70
2007,08,14,09,03,18.80
2007,08,14,09,04,18.80
2007,08,14,09,05,18.90
2007,08,14,09,06,19.00
2007,08,14,09,07,19.10
2007,08,14,09,08,19.10
2007,08,14,09,09,19.20
2007,08,14,09,10,19.20
2007,08,14,09,11,19.30
2007,08,14,09,12,19.40
2007,08,14,09,13,19.30
2007,08,14,09,14,19.30
2007,08,14,09,15,19.30
2007,08,14,09,16,19.20
2007,08,14,09,17,19.30
2007,08,14,09,18,19.30
2007,08,14,09,19,19.20
2007,08,14,09,20,19.20
2007,08,14,09,21,19.20
2007,08,14,09,22,19.30
2007,08,14,09,23,19.30
2007,08,14,09,24,19.40
2007,08,14,09,25,19.40
2007,08,14,09,26,19.40
2007,08,14,09,27,19.40
2007,08,14,09,28,19.30
2007,08,14,09,29,19.30
2007,08,14,09,30,19.30
2007,08,14,09,31,19.30
2007,08,14,09,32,19.30
2007,08,14,09,33,19.30
2007,08,14,09,34,19.30
2007,08,14,09,35,19.40
2007,08,14,09,36,19.40
2007,08,14,09,37,19.50
2007,08,14,09,38,19.50
2007,08,14,09,39,19.60
2007,08,14,09,40,19.60
2007,08,14,09,41,19.60
2007,08,14,09,42,19.60
2007,08,14,09,43,19.60
2007,08,14,09,44,19.70
2007,08,14,09,45,19.70
2007,08,14,09,46,19.70
2007,08,14,09,47,19.80
2007,08,14,09,48,19.80
2007,08,14,09,49,19.80
2007,08,14,09,50,19.70
2007,08,14,09,51,19.70
2007,08,14,09,52,19.70
2007,08,14,09,53,19.70
2007,08,14,09,54,19.70
2007,08,14,09,55,19.80
2007,08,14,09,56,19.90
2007,08,14,09,57,19.90
2007,08,14,09,58,19.90
2007,08,14,09,59,20.00
2007,08,14,10,00,20.20
2007,08,14,10,01,20.30
2007,08,14,10,02,20.30
2007,08,14,10,03,20.40
2007,08,14,10,04,20.50
2007,08,14,10,05,20.50
2007,08,14,10,06,20.60
2007,08,14,10,07,20.60
2007,08,14,10,08,20.70
2007,08,14,10,09,20.60
2007,08,14,10,10,20.60
2007,08,14,10,11,20.60
2007,08,14,10,12,20.70
2007,08,14,10,13,20.80
2007,08,14,10,14,20.80
2007,08,14,10,15,20.80
2007,08,14,10,16,20.80
2007,08,14,10,17,20.90
2007,08,14,10,18,20.90
2007,08,14,10,19,21.00
2007,08,14,10,20,21.00
2007,08,14,10,21,21.10
2007,08,14,10,22,21.20
2007,08,14,10,23,21.30
2007,08,14,10,24,21.30
2007,08,14,10,25,21.40
2007,08,14,10,26,21.50
2007,08,14,10,27,21.50
2007,08,14,10,28,21.60
2007,08,14,10,29,21.50
2007,08,14,10,30,21.40
2007,08,14,10,31,21.40
2007,08,14,10,32,21.40
2007,08,14,10,33,21.30
2007,08,14,10,34,21.20
2007,08,14,10,35,21.20
2007,08,14,10,36,21.20
2007,08,14,10,37,21.20
2007,08,14,10,38,21.30
2007,08,14,10,39,21.30
2007,08,14,10,40,21.40
2007,08,14,10,41,21.40
2007,08,14,10,42,21.40
2007,08,14,10,43,21.40
2007,08,14,10,44,21.50
2007,08,14,10,45,21.50
2007,08,14,10,46,21.40
2007,08,14,10,47,21.20
2007,08,14,10,48,21.00
2007,08,14,10,49,20.90
2007,08,14,10,50,20.80
2007,08,14,10,51,20.70
2007,08,14,10,52,20.60
2007,08,14,10,53,20.60
2007,08,14,10,54,20.60
2007,08,14,10,55,20.60
2007,08,14,10,56,20.60
2007,08,14,10,57,20.50
2007,08,14,10,58,20.60
2007,08,14,10,59,20.60
2007,08,14,11,00,20.50
2007,08,14,11,01,20.50
2007,08,14,11,02,20.70
2007,08,14,11,03,20.80
2007,08,14,11,04,20.80
2007,08,14,11,05,20.80
2007,08,14,11,06,20.80
2007,08,14,11,07,20.70
2007,08,14,11,08,20.60
2007,08,14,11,09,20.60
2007,08,14,11,10,20.70
2007,08,14,11,11,20.90
2007,08,14,11,12,21.00
2007,08,14,11,13,21.10
2007,08,14,11,14,21.30
2007,08,14,11,15,21.40
2007,08,14,11,16,21.40
2007,08,14,11,17,21.20
2007,08,14,11,18,21.20
2007,08,14,11,19,21.20
2007,08,14,11,20,21.20
2007,08,14,11,21,21.30
2007,08,14,11,22,21.50
2007,08,14,11,23,21.50
2007,08,14,11,24,21.50
2007,08,14,11,25,21.60
2007,08,14,11,26,21.50
2007,08,14,11,27,21.50
2007,08,14,11,28,21.60
2007,08,14,11,29,21.60
2007,08,14,11,30,21.50
2007,08,14,11,31,21.40
2007,08,14,11,32,21.30
2007,08,14,11,33,21.20
2007,08,14,11,34,21.30
2007,08,14,11,35,21.40
2007,08,14,11,36,21.50
2007,08,14,11,37,21.50
2007,08,14,11,38,21.50
2007,08,14,11,39,21.30
2007,08,14,11,40,21.30
2007,08,14,11,41,21.30
2007,08,14,11,42,21.30
2007,08,14,11,43,21.50
2007,08,14,11,44,21.50
2007,08,14,11,45,21.40
2007,08,14,11,46,21.30
2007,08,14,11,47,21.40
2007,08,14,11,48,21.50
2007,08,14,11,49,21.60
2007,08,14,11,50,21.70
2007,08,14,11,51,21.60
2007,08,14,11,52,21.60
2007,08,14,11,53,21.60
2007,08,14,11,54,21.70
2007,08,14,11,55,21.70
2007,08,14,11,56,21.60
2007,08,14,11,57,21.50
2007,08,14,11,58,21.40
2007,08,14,11,59,21.40
2007,08,14,12,00,21.50
2007,08,14,12,01,21.50
2007,08,14,12,02,21.70
2007,08,14,12,03,21.70
2007,08,14,12,04,21.80
2007,08,14,12,05,21.90
2007,08,14,12,06,22.00
2007,08,14,12,07,22.00
2007,08,14,12,08,22.10
2007,08,14,12,09,22.20
2007,08,14,12,10,22.30
2007,08,14,12,11,22.30
2007,08,14,12,12,22.20
2007,08,14,12,13,22.10
2007,08,14,12,14,22.10
2007,08,14,12,15,22.20
2007,08,14,12,16,22.30
2007,08,14,12,17,22.40
2007,08,14,12,18,22.30
2007,08,14,12,19,22.30
2007,08,14,12,20,22.30
2007,08,14,12,21,22.30
2007,08,14,12,22,22.30
2007,08,14,12,23,22.20
2007,08,14,12,24,22.20
2007,08,14,12,25,22.30
2007,08,14,12,26,22.40
2007,08,14,12,27,22.40
2007,08,14,12,28,22.40
2007,08,14,12,29,22.30
2007,08,14,12,30,22.30
2007,08,14,12,31,22.20
2007,08,14,12,32,22.10
2007,08,14,12,33,22.00
2007,08,14,12,34,22.00
2007,08,14,12,35,21.90
2007,08,14,12,36,21.90
2007,08,14,12,37,21.90
2007,08,14,12,38,22.00
2007,08,14,12,39,22.20
2007,08,14,12,40,22.40
2007,08,14,12,41,22.60
2007,08,14,12,42,22.60
2007,08,14,12,43,22.50
2007,08,14,12,44,22.40
2007,08,14,12,45,22.30
2007,08,14,12,46,22.20
2007,08,14,12,47,22.10
2007,08,14,12,48,22.20
2007,08,14,12,49,22.10
2007,08,14,12,50,22.00
2007,08,14,12,51,21.90
2007,08,14,12,52,21.80
2007,08,14,12,53,21.80
2007,08,14,12,54,21.80
2007,08,14,12,55,21.90
2007,08,14,12,56,22.00
2007,08,14,12,57,22.10
2007,08,14,12,58,22.10
2007,08,14,12,59,22.00
2007,08,14,13,00,22.00
2007,08,14,13,01,22.00
2007,08,14,13,02,22.10
2007,08,14,13,03,22.10
2007,08,14,13,04,22.20
2007,08,14,13,05,22.30
2007,08,14,13,06,22.30
2007,08,14,13,07,22.30
2007,08,14,13,08,22.30
2007,08,14,13,09,22.30
2007,08,14,13,10,22.30
2007,08,14,13,11,22.20
2007,08,14,13,12,22.10
2007,08,14,13,13,22.00
2007,08,14,13,14,22.00
2007,08,14,13,15,21.90
2007,08,14,13,16,21.80
2007,08,14,13,17,22.00
2007,08,14,13,18,22.10
2007,08,14,13,19,22.10
2007,08,14,13,20,22.10
2007,08,14,13,21,22.00
2007,08,14,13,22,22.00
2007,08,14,13,23,22.00
2007,08,14,13,24,22.10
2007,08,14,13,25,22.10
2007,08,14,13,26,22.20
2007,08,14,13,27,22.20
2007,08,14,13,28,22.20
2007,08,14,13,29,22.30
2007,08,14,13,30,22.30
2007,08,14,13,31,22.30
2007,08,14,13,32,22.30
2007,08,14,13,33,22.20
2007,08,14,13,34,22.20
2007,08,14,13,35,22.30
2007,08,14,13,36,22.40
2007,08,14,13,37,22.50
2007,08,14,13,38,22.50
2007,08,14,13,39,22.50
2007,08,14,13,40,22.60
2007,08,14,13,41,22.60
2007,08,14,13,42,22.80
2007,08,14,13,43,22.90
2007,08,14,13,44,22.90
2007,08,14,13,45,22.90
2007,08,14,13,46,22.80
2007,08,14,13,47,22.80
2007,08,14,13,48,22.70
2007,08,14,13,49,22.80
2007,08,14,13,50,22.80
2007,08,14,13,51,22.70
2007,08,14,13,52,22.80
2007,08,14,13,53,23.00
2007,08,14,13,54,23.10
2007,08,14,13,55,23.20
2007,08,14,13,56,23.30
2007,08,14,13,57,23.50
2007,08,14,13,58,23.60
2007,08,14,13,59,23.60
2007,08,14,14,00,23.70
2007,08,14,14,01,23.70
2007,08,14,14,02,23.80
2007,08,14,14,03,23.80
2007,08,14,14,04,23.90
2007,08,14,14,05,23.80
2007,08,14,14,06,23.90
2007,08,14,14,07,23.90
2007,08,14,14,08,24.00
2007,08,14,14,09,24.00
2007,08,14,14,10,24.10
2007,08,14,14,11,24.00
2007,08,14,14,12,23.90
2007,08,14,14,13,23.80
2007,08,14,14,14,23.70
2007,08,14,14,15,23.60
2007,08,14,14,16,23.60
2007,08,14,14,17,23.60
2007,08,14,14,18,23.60
2007,08,14,14,19,23.60
2007,08,14,14,20,23.60
2007,08,14,14,21,23.60
2007,08,14,14,22,23.50
2007,08,14,14,23,23.30
2007,08,14,14,24,23.20
2007,08,14,14,25,23.20
2007,08,14,14,26,23.20
2007,08,14,14,27,23.30
2007,08,14,14,28,23.30
2007,08,14,14,29,23.40
2007,08,14,14,30,23.40
2007,08,14,14,31,23.40
2007,08,14,14,32,23.50
2007,08,14,14,33,23.60
2007,08,14,14,34,23.70
2007,08,14,14,35,23.80
2007,08,14,14,36,24.00
2007,08,14,14,37,24.20
2007,08,14,14,38,24.30
2007,08,14,14,39,24.40
2007,08,14,14,40,24.20
2007,08,14,14,41,23.90
2007,08,14,14,42,23.70
2007,08,14,14,43,23.70
2007,08,14,14,44,23.80
2007,08,14,14,45,23.80
2007,08,14,14,46,23.90
2007,08,14,14,47,24.00
2007,08,14,14,48,24.10
2007,08,14,14,49,24.20
2007,08,14,14,50,24.20
2007,08,14,14,51,24.20
2007,08,14,14,52,24.20
2007,08,14,14,53,24.20
2007,08,14,14,54,24.20
2007,08,14,14,55,24.20
2007,08,14,14,56,24.20
2007,08,14,14,57,24.20
2007,08,14,14,58,24.20
2007,08,14,14,59,24.10
2007,08,14,15,00,24.10
2007,08,14,15,01,24.20
2007,08,14,15,02,24.20
2007,08,14,15,03,24.30
2007,08,14,15,04,24.40
2007,08,14,15,05,24.30
2007,08,14,15,06,24.20
2007,08,14,15,07,24.20
2007,08,14,15,08,24.20
2007,08,14,15,09,24.20
2007,08,14,15,10,24.10
2007,08,14,15,11,24.10
2007,08,14,15,12,24.10
2007,08,14,15,13,24.10
2007,08,14,15,14,24.10
2007,08,14,15,15,24.20
2007,08,14,15,16,24.30
2007,08,14,15,17,24.30
2007,08,14,15,18,24.30
2007,08,14,15,19,24.20
2007,08,14,15,20,24.00
2007,08,14,15,21,23.90
2007,08,14,15,22,23.80
2007,08,14,15,23,23.80
2007,08,14,15,24,23.70
2007,08,14,15,25,23.60
2007,08,14,15,26,23.60
2007,08,14,15,27,23.60
2007,08,14,15,28,23.70
2007,08,14,15,29,23.80
2007,08,14,15,30,23.70
2007,08,14,15,31,23.70
2007,08,14,15,32,23.80
2007,08,14,15,33,23.90
2007,08,14,15,34,24.00
2007,08,14,15,35,24.00
2007,08,14,15,36,23.90
2007,08,14,15,37,23.90
2007,08,14,15,38,24.00
2007,08,14,15,39,24.10
2007,08,14,15,40,24.10
2007,08,14,15,41,24.20
2007,08,14,15,42,24.30
2007,08,14,15,43,24.50
2007,08,14,15,44,24.50
2007,08,14,15,45,24.60
2007,08,14,15,46,24.70
2007,08,14,15,47,24.80
2007,08,14,15,48,24.90
2007,08,14,15,49,24.90
2007,08,14,15,50,24.90
2007,08,14,15,51,24.90
2007,08,14,15,52,24.90
2007,08,14,15,53,24.90
2007,08,14,15,54,24.90
2007,08,14,15,55,24.90
2007,08,14,15,56,24.90
2007,08,14,15,57,24.90
2007,08,14,15,58,24.90
2007,08,14,15,59,24.90
2007,08,14,16,00,24.90
2007,08,14,16,01,24.70
2007,08,14,16,02,24.60
2007,08,14,16,03,24.60
2007,08,14,16,04,24.60
2007,08,14,16,05,24.60
2007,08,14,16,06,24.60
2007,08,14,16,07,24.60
2007,08,14,16,08,24.70
2007,08,14,16,09,24.60
2007,08,14,16,10,24.60
2007,08,14,16,11,24.60
2007,08,14,16,12,24.70
2007,08,14,16,13,24.80
2007,08,14,16,14,24.80
2007,08,14,16,15,24.90
2007,08,14,16,16,24.90
2007,08,14,16,17,25.00
2007,08,14,16,18,25.10
2007,08,14,16,19,25.20
2007,08,14,16,20,25.30
2007,08,14,16,21,25.30
2007,08,14,16,22,25.30
2007,08,14,16,23,25.20
2007,08,14,16,24,25.10
2007,08,14,16,25,24.90
2007,08,14,16,26,24.70
2007,08,14,16,27,24.70
2007,08,14,16,28,24.80
2007,08,14,16,29,24.90
2007,08,14,16,30,25.00
2007,08,14,16,31,25.00
2007,08,14,16,32,25.00
2007,08,14,16,33,24.80
2007,08,14,16,34,24.80
2007,08,14,16,35,24.80
2007,08,14,16,36,24.80
2007,08,14,16,37,24.80
2007,08,14,16,38,24.90
2007,08,14,16,39,25.00
2007,08,14,16,40,25.10
2007,08,14,16,41,25.10
2007,08,14,16,42,25.20
2007,08,14,16,43,25.30
2007,08,14,16,44,25.30
2007,08,14,16,45,25.20
2007,08,14,16,46,25.20
2007,08,14,16,47,25.20
2007,08,14,16,48,25.10
2007,08,14,16,49,25.00
2007,08,14,16,50,24.90
2007,08,14,16,51,24.80
2007,08,14,16,52,24.70
2007,08,14,16,53,24.70
2007,08,14,16,54,24.60
2007,08,14,16,55,24.50
2007,08,14,16,56,24.60
2007,08,14,16,57,24.50
2007,08,14,16,58,24.50
2007,08,14,16,59,24.50
2007,08,14,17,00,24.40
2007,08,14,17,01,24.40
2007,08,14,17,02,24.50
2007,08,14,17,03,24.50
2007,08,14,17,04,24.50
2007,08,14,17,05,24.50
2007,08,14,17,06,24.50
2007,08,14,17,07,24.50
2007,08,14,17,08,24.50
2007,08,14,17,09,24.60
2007,08,14,17,10,24.60
2007,08,14,17,11,24.50
2007,08,14,17,12,24.50
2007,08,14,17,13,24.40
2007,08,14,17,14,24.40
2007,08,14,17,15,24.40
2007,08,14,17,16,24.50
2007,08,14,17,17,24.50
2007,08,14,17,18,24.60
2007,08,14,17,19,24.60